This is the latest recevied weather packets stored in our database for station/object K8RLH. If no packets are shown the sender has not sent any weather packets the latest 1 day(s).
| Time | Temp. | Humidity | Pressure | Rain* | Wind** | Luminosity | Snow |
|---|---|---|---|---|---|---|---|
| 1778051887 | 18.89° C | 69% | 1015.8 hPa | 0 mm | 0.89 m/s, 180° | 0 W/m² | - |
| 1778051586 | 18.89° C | 69% | 1015.8 hPa | 0 mm | 0.89 m/s, 179° | 0 W/m² | - |
| 1778051282 | 18.89° C | 68% | 1015.9 hPa | 0 mm | 0.89 m/s, 179° | 0 W/m² | - |
| 1778050979 | 18.89° C | 68% | 1015.9 hPa | 0 mm | 0.89 m/s, 160° | 0 W/m² | - |
| 1778050676 | 18.89° C | 68% | 1015.9 hPa | 0 mm | 0.45 m/s, 148° | 0 W/m² | - |
| 1778050374 | 18.89° C | 67% | 1016 hPa | 0 mm | 0.45 m/s, 163° | 0 W/m² | - |
| 1778050070 | 18.89° C | 67% | 1016 hPa | 0 mm | 0.45 m/s, 169° | 0 W/m² | - |
| 1778049765 | 18.89° C | 66% | 1016 hPa | 0 mm | 0 m/s | 0 W/m² | - |
| 1778049463 | 18.89° C | 66% | 1016.1 hPa | 0 mm | 0.89 m/s, 149° | 0 W/m² | - |
| 1778049161 | 18.89° C | 65% | 1016.1 hPa | 0 mm | 0.45 m/s, 164° | 0 W/m² | - |
| 1778048859 | 18.89° C | 65% | 1016.3 hPa | 0 mm | 0.45 m/s, 175° | 0 W/m² | - |
| 1778048556 | 18.89° C | 65% | 1016 hPa | 0 mm | 0.45 m/s, 176° | 0 W/m² | - |
| 1778048251 | 18.89° C | 65% | 1016.1 hPa | 0 mm | 0.45 m/s, 161° | 0 W/m² | - |
| 1778047949 | 18.89° C | 65% | 1016 hPa | 0 mm | 0.45 m/s, 169° | 0 W/m² | - |
| 1778047648 | 18.33° C | 65% | 1015.9 hPa | 0 mm | 0 m/s | 0 W/m² | - |
| 1778047344 | 18.33° C | 65% | 1015.7 hPa | 0 mm | 0.45 m/s, 165° | 0 W/m² | - |
| 1778047041 | 18.33° C | 65% | 1015.7 hPa | 0 mm | 0.45 m/s, 160° | 0 W/m² | - |
| 1778046738 | 18.33° C | 66% | 1015.9 hPa | 0 mm | 0 m/s | 0 W/m² | - |
| 1778046435 | 18.33° C | 67% | 1015.9 hPa | 0 mm | 0.45 m/s, 159° | 0 W/m² | - |
| 1778046131 | 18.33° C | 66% | 1015.9 hPa | 0 mm | 0.45 m/s, 159° | 0 W/m² | - |
| 1778045829 | 18.33° C | 66% | 1016.1 hPa | 0 mm | 0 m/s | 0 W/m² | - |
| 1778045527 | 18.33° C | 66% | 1016 hPa | 0 mm | 0.89 m/s, 169° | 0 W/m² | - |
| 1778045225 | 18.89° C | 64% | 1015.8 hPa | 0 mm | 0.89 m/s, 164° | 0 W/m² | - |
| 1778044923 | 18.89° C | 64% | 1015.8 hPa | 0 mm | 0.45 m/s, 179° | 0 W/m² | - |
| 1778044620 | 18.89° C | 65% | 1015.8 hPa | 0 mm | 0 m/s | 0 W/m² | - |
* Rain latest hour (hover to see other rain measurements)
** Current wind speed in m/s (hover to see current wind gust speed)